Location: Beetenbrück
(52.8113°N, 9.5946°E)
Time: 21:33:57
(UTC+00:00)

Cosmos 2151 - Pass Details

Date: 14 April 2026
Orbit: 558 x 574 km, 82.5° (Epoch: 12 May)

Event Time Altitude Azimuth Distance (km) Brightness Sun altitude
Rises 23:41:39 0° 353° (N) 2,800 7.6 -27.4°
Reaches altitude 10° 23:43:58 10° 1° (N) 1,897 6.5 -27.3°
Enters shadow 23:47:24 39° 51° (NE) 874 4.1 -27.3°
